[[{"header":{"parameterUnit":"m.s-1","parameterCategory":1,"la1":30.2991,"la2":30.254,"lo1":-89.0895,"lo2":-89.0444,"dy":0.0017,"dx":0.0017,"nx":28,"ny":28,"refTime":"2023-09-25T09:00:00:Z","depth":0,"parameterNumber":2,"parameterNumberName":"U-component_of_WINDS"},"data":[0,0,0,0,0,0,0,0,0,0,0,0,0,0,0,0,0,0,0,0,0,0,0,0,0,0,0,0,0,0,0,0,0,0,0,0,0,0,0,0,0,0,0,0,0,0,0,0,0,0,0,0,0,0,0,0,0,0,0.9565,0.9565,0,0.9586,0.9586,0.9587,0.9581,0.9581,0.9581,0.958,0.9599,0.96,0.9601,0,0,0,0,0,0,0,0,0,0,0,0,0,0.9516,0.9517,0.9565,0.9565,0.9565,0.9586,0.9586,0.9587,0.9581,0.9581,0.958,0.958,0.9599,0.96,0.9601,0,0,0,0,0,0,0,0,0,0,0,0,0,0.9537,0.9517,0.9565,0.9565,0.9566,0.9586,0.9586,0.9587,0.9581,0.9581,0.958,0.958,0.9599,0.96,0.9601,0.9621,0,0,0.9605,0.9606,0,0,0,0,0,0,0,0,0.9536,0.9539,0.9565,0.9565,0.9566,0.9581,0.9576,0.9598,0.9582,0.9575,0.958,0.9579,0.9593,0.9595,0.96,0.9622,0.9623,0.9605,0.9606,0.9607,0.9607,0,0,0,0,0,0,0,0.9534,0.9538,0.9573,0.9565,0.9566,0.9563,0.9565,0.958,0.9587,0.9576,0.9576,0.9578,0.9593,0.9599,0.9601,0.9623,0.9605,0.9606,0.9607,0.9608,0.966,0.9661,0,0,0,0,0,0,0.9533,0.9537,0.9573,0.9574,0.9549,0.9565,0.9567,0.9576,0.9587,0.9588,0.9579,0.9578,0.9597,0.9599,0.9601,0.9624,0.9607,0.9608,0.9609,0.9659,0.966,0.9661,0,0,0,0,0,0,0.9532,0.9536,0.9572,0.9555,0.9559,0.9566,0.9576,0.9577,0.9583,0.9589,0.959,0.9583,0.9597,0.9599,0.9616,0.9624,0.9609,0.961,0.9659,0.966,0.9661,0.967,0,0,0,0,0,0,0.9531,0.9536,0.9545,0.9555,0.956,0.9587,0.9577,0.9578,0.9585,0.9584,0.9594,0.9595,0.9596,0.9614,0.9617,0.9626,0.9611,0.9658,0.9659,0.966,0.9669,0.9671,0.9673,0,0,0,0,0,0.9529,0.9547,0.9545,0.955,0.9572,0.9588,0.9591,0.9592,0.9586,0.9594,0.9598,0.9595,0.9623,0.9616,0.9619,0.9629,0.9657,0.9659,0.966,0.9668,0.9671,0.9673,0,0,0,0,0,0,0.9537,0.9548,0.9547,0.9569,0.9578,0.9587,0.9598,0.9596,0.9605,0.9604,0.9605,0.9607,0.9624,0.9628,0.962,0.9647,0.9639,0.9641,0.9644,0.9646,0.9648,0.9647,0.9612,0,0,0,0,0,0.9541,0.9555,0.9563,0.9582,0.9586,0.9591,0.9598,0.9599,0.9607,0.9611,0.9616,0.9623,0.9634,0.964,0.9651,0.967,0.967,0.9678,0.968,0.9681,0.9683,0.9691,0.9693,0.9665,0.9665,0.9665,0,0,0.9551,0.9558,0.9567,0.9584,0.959,0.9602,0.9594,0.9608,0.9616,0.9612,0.9628,0.9632,0.964,0.9657,0.9665,0.9661,0.969,0.9683,0.9684,0.9685,0.9692,0.9695,0.9697,0.9666,0.9666,0.9666,0,0,0.9573,0.9581,0.9596,0.9603,0.9613,0.9616,0.9619,0.9629,0.9631,0.9647,0.9644,0.9653,0.9671,0.9677,0.9682,0.9704,0.97,0.9707,0.9717,0.9725,0.9727,0.9729,0.9735,0.9737,0.9708,0.9709,0.9709,0,0.9583,0.9602,0.9604,0.9617,0.9624,0.9621,0.9635,0.9641,0.9654,0.9658,0.9653,0.9675,0.9681,0.9698,0.9703,0.9708,0.971,0.9705,0.9727,0.9729,0.973,0.9736,0.9738,0.9709,0.9709,0.9709,0.9709,0,0.9612,0.9625,0.9636,0.9648,0.9656,0.9669,0.9672,0.968,0.9679,0.9681,0.9696,0.9702,0.9713,0.9717,0.9717,0.9734,0.9731,0.9727,0.9718,0.9734,0.9739,0.9741,0.971,0.971,0.971,0.9709,0,0,0.9641,0.9653,0.9657,0.9661,0.9671,0.968,0.9693,0.9703,0.9708,0.9717,0.9726,0.974,0.9736,0.9742,0.9742,0.9749,0.9763,0.9743,0.9744,0.9745,0.9779,0.9782,0.9784,0.9761,0.9762,0.9762,0.9778,0,0.9663,0.9685,0.9687,0.9707,0.9717,0.9714,0.9724,0.973,0.9733,0.9741,0.9743,0.9753,0.9748,0.9751,0.9758,0.976,0.977,0.9759,0.9768,0.9768,0.9765,0.9787,0.979,0.9805,0.978,0.9781,0.9781,0,0.9691,0.97,0.9721,0.9727,0.9732,0.9741,0.9749,0.9758,0.9764,0.9765,0.9771,0.9769,0.978,0.9772,0.9786,0.9778,0.9782,0.9783,0.9784,0.9784,0.9775,0.9786,0.981,0.9812,0.9785,0.9784,0.9784,0,0.9707,0.9725,0.9739,0.9743,0.9751,0.9757,0.9761,0.9767,0.9772,0.9779,0.9782,0.979,0.9794,0.98,0.98,0.9794,0.9813,0.9805,0.9813,0.9812,0.9816,0.9816,0.9839,0.9821,0.9821,0.9821,0.982,0,0.9731,0.9743,0.9746,0.9754,0.9767,0.9768,0.978,0.9783,0.9788,0.9796,0.9794,0.9801,0.9801,0.9808,0.9808,0.9818,0.982,0.982,0.982,0.982,0.982,0.9822,0.982,0.9821,0.9821,0.9821,0.9821,0,0.9751,0.9753,0.9768,0.9774,0.9776,0.9785,0.9789,0.9797,0.9798,0.9808,0.981,0.9813,0.9821,0.9821,0.9831,0.9831,0.9842,0.9842,0.984,0.984,0.9846,0.9845,0.9871,0.9874,0.9855,0.9855,0.9855,0,0.9765,0.9774,0.9781,0.9786,0.979,0.9798,0.9803,0.9804,0.9809,0.9816,0.9822,0.9829,0.9836,0.9848,0.985,0.9856,0.9855,0.9863,0.9856,0.9854,0.9853,0.9852,0.9852,0.9864,0.9865,0.9865,0.9865,0,0.9788,0.9789,0.9797,0.9804,0.981,0.9817,0.9822,0.9826,0.9827,0.9833,0.9841,0.9846,0.9855,0.9862,0.9868,0.987,0.9867,0.9867,0.9869,0.9869,0.9867,0.9866,0.9843,0.9867,0.9866,0.9866,0.9866,0.9866,0.9805,0.9812,0.9817,0.9825,0.9829,0.9834,0.9841,0.9843,0.985,0.9857,0.9857,0.9865,0.9869,0.9877,0.988,0.9886,0.9883,0.9886,0.9886,0.9887,0.9886,0.9867,0.9887,0.9887,0.9887,0.9887,0.9887,0,0.9826,0.9829,0.9837,0.9845,0.9851,0.9848,0.9853,0.9858,0.9866,0.987,0.9876,0.9884,0.989,0.9892,0.9898,0.9902,0.9901,0.9904,0.9903,0.9903,0.989,0.9887,0.9905,0.9905,0.9905,0.9905,0.9905,0.9905,0.9839,0.985,0.985,0.9863,0.9866,0.9874,0.9877,0.9881,0.9884,0.9894,0.9899,0.99,0.9903,0.9909,0.9914,0.9915,0.9916,0.9919,0.9919,0.9906,0.9904,0.9902,0.99,0.992,0.992,0.9931,0.9932,0.9932]},{"header":{"parameterUnit":"m.s-1","parameterCategory":1,"la1":30.2991,"la2":30.254,"lo1":-89.0895,"lo2":-89.0444,"dy":0.0017,"dx":0.0017,"nx":28,"ny":28,"refTime":"2023-09-25T09:00:00:Z","depth":0,"parameterNumber":3,"parameterNumberName":"V-component_of_WINDS"},"data":[0,0,0,0,0,0,0,0,0,0,0,0,0,0,0,0,0,0,0,0,0,0,0,0,0,0,0,0,0,0,0,0,0,0,0,0,0,0,0,0,0,0,0,0,0,0,0,0,0,0,0,0,0,0,0,0,0,0,2.8449,2.8449,0,2.8445,2.8445,2.8445,2.8374,2.8372,2.837,2.8368,2.8364,2.8366,2.8367,0,0,0,0,0,0,0,0,0,0,0,0,0,2.8395,2.8397,2.8449,2.8449,2.8449,2.8445,2.8445,2.8445,2.8374,2.8372,2.837,2.8368,2.8364,2.8365,2.8367,0,0,0,0,0,0,0,0,0,0,0,0,0,2.8408,2.8397,2.8449,2.8413,2.841,2.8445,2.8445,2.8445,2.8375,2.8372,2.8369,2.8367,2.8363,2.8365,2.8368,2.8437,0,0,2.8375,2.8376,0,0,0,0,0,0,0,0,2.8407,2.841,2.8419,2.8416,2.8412,2.8407,2.8424,2.8442,2.8375,2.8388,2.8368,2.8365,2.8381,2.8381,2.8387,2.8436,2.8436,2.8375,2.8376,2.8378,2.8378,0,0,0,0,0,0,0,2.8406,2.841,2.8448,2.8419,2.8415,2.8397,2.8396,2.8427,2.84,2.8387,2.8382,2.8382,2.8378,2.8384,2.8386,2.8436,2.8375,2.8377,2.8379,2.8379,2.854,2.8542,0,0,0,0,0,0,2.8411,2.8409,2.8448,2.8447,2.8403,2.84,2.8399,2.8412,2.8399,2.8395,2.8384,2.8379,2.8382,2.8383,2.8386,2.8463,2.8377,2.838,2.8381,2.8537,2.854,2.8543,0,0,0,0,0,0,2.841,2.8415,2.8448,2.8427,2.843,2.8404,2.8419,2.8413,2.8419,2.8397,2.8392,2.8396,2.838,2.8382,2.8424,2.8462,2.8381,2.8383,2.8533,2.8538,2.8542,2.8621,0,0,0,0,0,0,2.8409,2.8415,2.8441,2.8428,2.8431,2.8487,2.8421,2.8415,2.8423,2.8416,2.8406,2.8402,2.8378,2.8421,2.8426,2.8464,2.8385,2.853,2.8535,2.854,2.8614,2.8627,2.8638,0,0,0,0,0,2.8407,2.8464,2.8443,2.8448,2.8464,2.8489,2.8491,2.8461,2.8427,2.8452,2.8438,2.8403,2.8457,2.8425,2.8431,2.847,2.8527,2.8534,2.854,2.8609,2.8625,2.8637,0,0,0,0,0,0,2.8483,2.8462,2.8438,2.8493,2.8493,2.8477,2.8509,2.8479,2.8489,2.8482,2.8445,2.8444,2.849,2.8485,2.8449,2.8535,2.8486,2.8494,2.8537,2.8551,2.8563,2.8562,2.8387,0,0,0,0,0,2.8507,2.8529,2.8509,2.856,2.8561,2.8535,2.8545,2.8522,2.8521,2.8521,2.851,2.851,2.8527,2.8539,2.8554,2.8614,2.8609,2.8643,2.8655,2.8665,2.8671,2.87,2.8714,2.8564,2.8564,2.8564,0,0,2.8555,2.8546,2.8563,2.8575,2.8572,2.8596,2.8536,2.8564,2.858,2.8525,2.8563,2.8555,2.8553,2.8603,2.8625,2.86,2.8712,2.8673,2.8681,2.8682,2.8708,2.8722,2.8735,2.8568,2.8568,2.8567,0,0,2.8654,2.8651,2.8691,2.8689,2.8686,2.8668,2.8678,2.8666,2.8658,2.8695,2.8654,2.8673,2.8704,2.8703,2.8707,2.8804,2.8771,2.881,2.887,2.8899,2.8911,2.8921,2.8953,2.8966,2.8817,2.8817,2.8817,0,2.8714,2.8748,2.8716,2.8745,2.8751,2.8702,2.8741,2.8742,2.8744,2.8748,2.872,2.8756,2.8751,2.8799,2.8823,2.8829,2.8837,2.881,2.8912,2.8922,2.8931,2.8961,2.8974,2.8822,2.8821,2.8821,2.882,0,2.8821,2.8845,2.8878,2.888,2.8889,2.8925,2.8896,2.891,2.8886,2.8871,2.8908,2.8901,2.8912,2.8922,2.89,2.8967,2.8951,2.8918,2.8868,2.895,2.8978,2.899,2.8828,2.8827,2.8825,2.8824,0,0,2.8969,2.8951,2.8963,2.8962,2.8954,2.8972,2.9004,2.9014,2.9025,2.9028,2.9053,2.9079,2.9048,2.9052,2.9029,2.9055,2.9129,2.9018,2.9017,2.9037,2.92,2.9223,2.9238,2.9108,2.911,2.9112,2.92,0,2.9063,2.9116,2.9086,2.9143,2.9163,2.9116,2.9144,2.9141,2.9128,2.9143,2.9128,2.9147,2.9105,2.9107,2.913,2.9115,2.9161,2.9109,2.9129,2.913,2.9129,2.9253,2.9278,2.9361,2.9211,2.9212,2.9214,0,2.9179,2.9185,2.9244,2.923,2.9237,2.9263,2.9268,2.9284,2.928,2.9268,2.9272,2.9242,2.9272,2.9223,2.9262,2.9227,2.9234,2.9228,2.923,2.923,2.9176,2.9253,2.9387,2.9399,2.9231,2.923,2.9228,0,2.9278,2.9301,2.9338,2.934,2.9325,2.9343,2.9338,2.9331,2.9338,2.9343,2.9347,2.9357,2.9361,2.9369,2.9341,2.9309,2.9384,2.9333,2.9373,2.9374,2.939,2.9389,2.9525,2.9398,2.9398,2.9398,2.9397,0,2.9385,2.9422,2.9382,2.9405,2.9444,2.941,2.9451,2.944,2.9434,2.9453,2.9414,2.9433,2.9397,2.9412,2.9392,2.9426,2.9429,2.942,2.9413,2.9422,2.9423,2.9424,2.9417,2.9401,2.94,2.9399,2.9399,0,2.9501,2.9476,2.9513,2.9495,2.9492,2.9521,2.9506,2.9526,2.9509,2.9534,2.9538,2.9512,2.9528,2.9502,2.9515,2.9501,2.9548,2.9534,2.9549,2.9544,2.9585,2.958,2.9724,2.9741,2.9606,2.9607,2.9608,0,2.957,2.9597,2.9581,2.9591,2.9587,2.9604,2.9611,2.9578,2.9586,2.9583,2.9603,2.9615,2.9623,2.965,2.9632,2.9641,2.9626,2.9676,2.9627,2.9634,2.9624,2.9622,2.9623,2.9685,2.9687,2.9688,2.9689,0,2.9694,2.968,2.969,2.9697,2.9705,2.9709,2.9709,2.972,2.9685,2.9696,2.9711,2.9717,2.9729,2.9742,2.9746,2.974,2.9709,2.9705,2.9714,2.9722,2.9729,2.9724,2.9574,2.9701,2.97,2.9699,2.9699,2.9698,2.9787,2.9808,2.9799,2.9812,2.9809,2.981,2.9827,2.9812,2.9823,2.983,2.981,2.9829,2.9823,2.9826,2.9823,2.9837,2.9815,2.9829,2.9832,2.9836,2.9841,2.9728,2.9838,2.9838,2.9838,2.9837,2.9837,0,2.9907,2.9898,2.9911,2.9912,2.9921,2.9891,2.9889,2.9899,2.9916,2.9913,2.9921,2.9937,2.9948,2.9931,2.9939,2.9953,2.9939,2.9956,2.9954,2.9953,2.9862,2.9852,2.9968,2.9968,2.9968,2.9968,2.9968,2.9968,2.997,3.0003,2.9987,3.0017,3.0009,3.0026,3.0028,3.0028,3.0025,3.0044,3.0053,3.0041,3.0032,3.0039,3.0047,3.0042,3.0046,3.0068,3.0057,2.9972,2.9959,2.9947,2.9937,3.0069,3.007,3.0146,3.0147,3.0148]}]]